Arctic Village, AK

9:31 PM AKDT on September 26, 2016 (GMT -0800)
Arctic Village

Weather History for PARC - March, 2013

Change the Weather History Date:

Monday, March 18, 2013

  Actual Average Record
Temperature  
Mean Temperature -6 °F -  
Max Temperature 8 °F 11 °F 32 °F (1990)
Min Temperature -20 °F -23 °F -43 °F (2008)
Degree Days  
Heating Degree Days 71    
Moisture  
Dew Point -19 °F    
Average Humidity 39    
Maximum Humidity 70    
Minimum Humidity 21    
Precipitation  
Precipitation 0.00 in - - ()
Sea Level Pressure  
Sea Level Pressure 29.92 in    
Wind  
Wind Speed 4 mph (NNE)    
Max Wind Speed 15 mph    
Max Gust Speed 20 mph    
Visibility 10 miles    
Events      
Averages and records for this station are not official NWS values.
T = Trace of Precipitation, MM = Missing Value Source: NWS Daily Summary

Daily Weather History Graph

Daily Weather History Graph

Search for Another Location

Airport or City:

Trip Planner

Search our weather history database for the weather conditions in past years. The results will help you decide how hot, cold, wet, or windy it might be!

Date:

Astronomy

Mar. 18, 2013 Rise Set
Actual Time 7:48 AM AKDT 7:53 PM AKDT
Civil Twilight 6:52 AM AKDT 8:50 PM AKDT
Nautical Twilight 5:43 AM AKDT 10:00 PM AKDT
Astronomical Twilight 4:19 AM AKDT 11:26 PM AKDT
Moon 8:35 AM AKDT (3/18) 5:19 AM AKDT (3/18)
Length of Visible Light 13h 57m
Length of Day
12h 05m
Waxing Crescent, 42% of the Moon is Illuminated
Mar 18
Waxing Crescent
Mar 19
First Quarter
Mar 27
Full
Apr 2
Last Quarter
Apr 10
New

Hourly Weather History & Observations

Time (AKDT) Temp. Windchill Dew Point Humidity Pressure Visibility Wind Dir Wind Speed Gust Speed Precip Events Conditions
12:16 AM -7.6 °F - -25.6 °F 41% 29.96 in 10.0 mi Calm Calm - N/A   Clear
12:36 AM -5.8 °F - - N/A% 29.95 in 10.0 mi Calm Calm - N/A   Clear
12:56 AM -5.8 °F - -29.2 °F 32% 29.95 in 10.0 mi Calm Calm - N/A   Clear
1:16 AM -11.2 °F - - N/A% 29.95 in 10.0 mi Calm Calm - N/A   Clear
1:36 AM -16.6 °F - - N/A% 29.95 in 10.0 mi Calm Calm - N/A   Clear
1:56 AM -13.0 °F - - N/A% 29.94 in 10.0 mi Calm Calm - N/A   Clear
2:16 AM -11.2 °F - - N/A% 29.93 in 10.0 mi Calm Calm - N/A   Clear
2:36 AM -9.4 °F - -23.8 °F 49% 29.93 in 10.0 mi Calm Calm - N/A   Clear
2:56 AM -9.4 °F - -20.2 °F 59% 29.93 in 10.0 mi Calm Calm - N/A   Clear
3:16 AM -16.6 °F - - N/A% 29.93 in 10.0 mi Calm Calm - N/A   Clear
3:36 AM -20.2 °F -30.9 °F - N/A% 29.92 in 10.0 mi West 3.5 mph - N/A   Clear
3:56 AM -20.2 °F - -27.4 °F 69% 29.92 in 10.0 mi Calm Calm - N/A   Clear
4:16 AM -18.4 °F - -25.6 °F 70% 29.92 in 10.0 mi Calm Calm - N/A   Clear
4:36 AM -16.6 °F - - N/A% 29.91 in 10.0 mi Calm Calm - N/A   Clear
4:56 AM -18.4 °F - - N/A% 29.91 in 10.0 mi Calm Calm - N/A   Clear
5:16 AM -18.4 °F - - N/A% 29.90 in 10.0 mi Calm Calm - N/A   Clear
5:36 AM -16.6 °F - - N/A% 29.90 in 10.0 mi Calm Calm - N/A   Clear
5:56 AM -20.2 °F - - N/A% 29.90 in 10.0 mi Calm Calm - N/A   Clear
6:16 AM -16.6 °F - - N/A% 29.90 in 10.0 mi Calm Calm - N/A   Clear
6:36 AM -14.8 °F - - N/A% 29.91 in 10.0 mi Calm Calm - N/A   Clear
6:56 AM -5.8 °F -14.5 °F - N/A% 29.91 in 10.0 mi North 3.5 mph - N/A   Clear
7:16 AM -2.2 °F -18.0 °F -29.2 °F 27% 29.90 in 10.0 mi NNE 9.2 mph - N/A   Clear
7:36 AM -9.4 °F - - N/A% 29.90 in 10.0 mi Calm Calm - N/A   Clear
7:56 AM -11.2 °F -20.6 °F - N/A% 29.90 in 10.0 mi WNW 3.5 mph - N/A   Clear
8:16 AM -2.2 °F - -25.6 °F 32% 29.90 in 10.0 mi Calm Calm - N/A   Clear
8:36 AM -5.8 °F -18.4 °F - N/A% 29.90 in 10.0 mi SSE 5.8 mph - N/A   Clear
8:56 AM -7.6 °F - -29.2 °F 34% 29.90 in 10.0 mi Calm Calm - N/A   Clear
9:16 AM -2.2 °F - -14.8 °F 55% 29.89 in 10.0 mi Calm Calm - N/A   Clear
9:36 AM -7.6 °F -20.6 °F - N/A% 29.90 in 10.0 mi South 5.8 mph - N/A   Clear
9:56 AM -0.4 °F -10.4 °F -13.0 °F 55% 29.89 in 10.0 mi SSE 4.6 mph - N/A   Clear
10:16 AM -0.4 °F - -31.0 °F 22% 29.88 in 10.0 mi Calm Calm - N/A   Clear
10:36 AM 1.4 °F -8.3 °F - N/A% 29.89 in 10.0 mi South 4.6 mph - N/A   Clear
10:56 AM 3.2 °F -6.2 °F -29.2 °F 21% 29.89 in 10.0 mi ESE 4.6 mph - N/A   Clear
11:16 AM 6.8 °F -2.0 °F -25.6 °F 21% 29.88 in 10.0 mi NE 4.6 mph - N/A   Clear
11:36 AM 6.8 °F -6.9 °F -23.8 °F 23% 29.88 in 10.0 mi NE 9.2 mph - N/A   Clear
11:56 AM 6.8 °F -5.9 °F -20.2 °F 28% 29.88 in 10.0 mi NE 8.1 mph - N/A   Clear
12:16 PM 8.6 °F -1.3 °F -16.6 °F 31% 29.89 in 10.0 mi NNE 5.8 mph - N/A   Clear
12:36 PM 8.6 °F -2.6 °F -16.6 °F 31% 29.90 in 10.0 mi ENE 6.9 mph - N/A   Clear
12:56 PM 8.6 °F -6.3 °F -14.8 °F 34% 29.90 in 10.0 mi NNE 11.5 mph - N/A   Clear
1:16 PM 8.6 °F -3.7 °F -14.8 °F 34% 29.90 in 10.0 mi NE 8.1 mph - N/A   Clear
1:36 PM 6.8 °F -9.3 °F -14.8 °F 37% 29.90 in 10.0 mi North 12.7 mph - N/A   Clear
1:56 PM 8.6 °F -2.6 °F -14.8 °F 34% 29.91 in 10.0 mi NNE 6.9 mph 16.1 mph N/A   Clear
2:16 PM 6.8 °F -10.0 °F -16.6 °F 34% 29.91 in 10.0 mi North 13.8 mph 17.3 mph N/A   Clear
2:36 PM 6.8 °F -8.6 °F -14.8 °F 37% 29.91 in 10.0 mi North 11.5 mph 19.6 mph N/A   Clear
2:56 PM 6.8 °F -7.8 °F -14.8 °F 37% 29.91 in 10.0 mi North 10.4 mph - N/A   Clear
3:16 PM 6.8 °F -10.0 °F -16.6 °F 34% 29.91 in 10.0 mi North 13.8 mph - N/A   Clear
3:36 PM 6.8 °F -10.0 °F -14.8 °F 37% 29.91 in 10.0 mi North 13.8 mph 19.6 mph N/A   Clear
3:56 PM 6.8 °F -5.9 °F -14.8 °F 37% 29.91 in 10.0 mi North 8.1 mph - N/A   Mostly Cloudy
4:16 PM 6.8 °F -10.0 °F -16.6 °F 34% 29.91 in 10.0 mi North 13.8 mph - N/A   Overcast
4:36 PM 6.8 °F -6.9 °F -14.8 °F 37% 29.91 in 10.0 mi North 9.2 mph - N/A   Overcast
4:56 PM 6.8 °F -8.6 °F -14.8 °F 37% 29.91 in 10.0 mi North 11.5 mph 17.3 mph N/A   Overcast
5:16 PM 5.0 °F -10.8 °F -16.6 °F 36% 29.91 in 10.0 mi North 11.5 mph 17.3 mph N/A   Scattered Clouds
5:36 PM 5.0 °F -10.8 °F -14.8 °F 40% 29.92 in 10.0 mi NNE 11.5 mph - N/A   Scattered Clouds
5:56 PM 3.2 °F -13.1 °F -16.6 °F 39% 29.92 in 10.0 mi NNE 11.5 mph 19.6 mph N/A   Mostly Cloudy
6:16 PM 3.2 °F -13.9 °F -14.8 °F 43% 29.92 in 10.0 mi NNE 12.7 mph 18.4 mph N/A   Mostly Cloudy
6:36 PM 3.2 °F -14.6 °F -16.6 °F 39% 29.92 in 10.0 mi NNE 13.8 mph 17.3 mph N/A   Scattered Clouds
6:56 PM 3.2 °F -12.2 °F -16.6 °F 39% 29.93 in 10.0 mi NNE 10.4 mph 18.4 mph N/A   Partly Cloudy
7:16 PM 1.4 °F -13.5 °F -16.6 °F 43% 29.93 in 10.0 mi NNE 9.2 mph 16.1 mph N/A   Clear
7:36 PM 1.4 °F -12.5 °F -18.4 °F 39% 29.93 in 10.0 mi ENE 8.1 mph - N/A   Clear
7:56 PM -0.4 °F -16.7 °F -18.4 °F 43% 29.94 in 10.0 mi NE 10.4 mph - N/A   Clear
8:16 PM -0.4 °F -17.6 °F -18.4 °F 43% 29.94 in 10.0 mi NE 11.5 mph 16.1 mph N/A   Clear
8:36 PM -0.4 °F -16.7 °F -18.4 °F 43% 29.95 in 10.0 mi NE 10.4 mph - N/A   Clear
8:56 PM -0.4 °F -19.9 °F -18.4 °F 43% 29.95 in 10.0 mi NE 15.0 mph 18.4 mph N/A   Clear
9:16 PM -2.2 °F -19.9 °F -20.2 °F 42% 29.96 in 10.0 mi NE 11.5 mph - N/A   Clear
9:36 PM -2.2 °F -18.0 °F -16.6 °F 50% 29.96 in 10.0 mi NE 9.2 mph - N/A   Clear
9:56 PM -0.4 °F -15.7 °F -20.2 °F 39% 29.96 in 10.0 mi NE 9.2 mph 16.1 mph N/A   Mostly Cloudy
10:16 PM -0.4 °F -14.7 °F -20.2 °F 39% 29.96 in 10.0 mi ENE 8.1 mph - N/A   Overcast
10:36 PM -0.4 °F -15.7 °F -18.4 °F 43% 29.97 in 10.0 mi NE 9.2 mph 16.1 mph N/A   Overcast
10:56 PM -2.2 °F -18.0 °F -20.2 °F 42% 29.97 in 10.0 mi ENE 9.2 mph - N/A   Overcast
11:16 PM -2.2 °F -16.8 °F -18.4 °F 46% 29.97 in 10.0 mi NE 8.1 mph - N/A   Overcast
11:36 PM -2.2 °F -15.6 °F -20.2 °F 42% 29.97 in 10.0 mi NE 6.9 mph - N/A   Scattered Clouds
11:56 PM -2.2 °F -12.5 °F -18.4 °F 46% 29.97 in 10.0 mi NE 4.6 mph - N/A   Mostly Cloudy